Terug naar catalogus

STARLINK-3341

ActiefCommunicatieVLEO
NORAD 50817·PAYLOAD·🇺🇸 United States

Gelanceerd Jan 6, 2022 vanaf Cape Canaveral Space Force Station

Loading…

Volgende Passages (komende 24 uur)

TLE

VersSource: CelesTrak SupGP

Epoch: Sep 15, 2026, 01:49 UTC

1 50817C 22001Q   26258.07618056 -.00018057  00000+0 -51653-3 0  2585
2 50817  53.1594  27.5107 0001191  83.9176 320.4837 15.35413916    14

Volg STARLINK-3341 in realtime met AllMySat

Download on the App Store